Flag for U.S.A. Weather past 2 weeks in Jefferson City, Missouri, U.S.A.

Now
54 °F

Clear.


Feels Like: 54 °F
Forecast: 58 / 82 °F
Wind: No wind

Location: Jefferson City Memorial Airport

Current Time: Oct 26, 2014 at 2:46:51 AM

Latest Report: Oct 26, 2014 at 1:53 AM


Visibility: 7 mi

Pressure: 29.98 "Hg

Humidity: 97%

Dew point: 53 °F

Location of Jefferson CityLocation

Historic Weather in Jefferson City — Graph

°F

Jefferson City temperature yesterday

Maximum temperature yesterday: 81 °F (at 2:53 PM)
Minimum temperature yesterday: 53 °F (at 8:02 AM)
Average temperature yesterday: 65 °F

Past Weeks' High & Low Weather Summary

 TemperatureHumidityPressure
High81 °F (Oct 25, 2:53 PM)100% (Oct 19, 6:53 AM)30.27 "Hg (Oct 19, 6:53 AM)
Low37 °F (Oct 19, 6:53 AM)27% (Oct 15, 4:53 PM)29.38 "Hg (Oct 13, 4:53 PM)
Average57 °F75%29.95 "Hg
* Reported Oct 11 12:53 AM — Oct 26 12:53 AM, Jefferson City, Weather by CustomWeather, © 2014

Note: Actual official high and low records may vary slightly from our data, if they occured in-between our weather recording intervals... More about our weather records

Advertising

Jefferson City weather history for previous 24 hours

 ConditionsComfort  
Time TempWeatherWind HumidityBarometerVisibility
12:53 AM
Oct 26
56 °FClear.No wind97%29.97 "Hg5 mi
11:53 PM
Oct 25
55 °FClear.No wind93%29.97 "Hg4 mi
10:53 PM58 °FClear.No wind90%29.99 "Hg10 mi
9:53 PM62 °FClear.No wind80%29.99 "Hg10 mi
8:53 PM61 °FClear.No wind83%29.98 "Hg10 mi
7:53 PM67 °FClear.No wind71%29.98 "Hg10 mi
6:53 PM69 °FSunny.No wind66%29.97 "Hg10 mi
5:53 PM80 °FSunny.No wind42%29.97 "Hg10 mi
4:53 PM81 °FSunny.3 mph41%29.97 "Hg10 mi
3:53 PM81 °FSunny.3 mph35%29.96 "Hg10 mi
2:53 PM81 °FSunny.3 mph42%29.98 "Hg10 mi
1:53 PM78 °FSunny.No wind58%29.99 "Hg9 mi
12:53 PM75 °FSunny.3 mph66%30.01 "Hg5 mi
11:53 AM72 °FSunny.3 mph71%30.03 "Hg10 mi
10:53 AM69 °FSunny.6 mph76%30.03 "Hg9 mi
9:53 AM61 °FSunny.No wind97%30.03 "Hg7 mi
8:53 AM56 °FFog.No wind100%30.03 "Hg0 mi
8:02 AM53 °FFog.No wind100%30.04 "Hg0 mi
7:53 AM54 °FFog.No wind97%30.01 "Hg0 mi
6:53 AM55 °FFog.No wind100%30.00 "Hg0 mi
5:53 AM54 °FFog.No wind97%29.98 "Hg0 mi
4:53 AM55 °FFog.No wind100%29.97 "Hg0 mi
3:53 AM58 °FFog.No wind93%29.96 "Hg5 mi
2:53 AM60 °FClear.No wind93%29.96 "Hg8 mi
Weather by CustomWeather, © 2014

See weather overviewHow to use our weather pages